Location: Hains Lake
(37.8540°N, 99.8578°W)
Time: 23:06:22
(UTC+00:00)

Vanguard 3 - Visible Passes

Search period start: 18 April 2021 00:00
Search period end: 28 April 2021 00:00
Orbit: 508 x 3262 km, 33.3° (Epoch: 18 April)

Date Brightness Start Highest point End Pass type
(mag) Time Alt. Az. Time Alt. Az. Time Alt. Az.
18 Apr 6.6 10:24:41 40° SSW 10:25:11 43° S 10:28:55 10° ESE visible
19 Apr 8.9 09:14:43 12° ESE 09:14:43 12° ESE 09:15:07 10° ESE visible
19 Apr 7.0 11:19:16 10° WSW 11:22:36 38° S 11:26:37 10° ESE visible
20 Apr 6.7 10:09:19 42° S 10:09:19 42° S 10:12:41 10° ESE visible
21 Apr 7.1 11:03:57 15° WSW 11:06:30 33° SSW 11:10:07 10° SE visible
22 Apr 7.2 09:54:03 33° SE 09:54:03 33° SE 09:56:30 10° ESE visible
23 Apr 7.2 10:48:44 20° WSW 10:50:22 28° SSW 10:53:41 10° SE visible
24 Apr 8.0 09:38:54 22° SE 09:38:54 22° SE 09:40:23 10° ESE visible
25 Apr 10.3 03:51:24 10° SSW 03:54:04 15° S 03:54:04 15° S visible
25 Apr 7.3 10:33:42 24° SSW 10:34:12 25° SSW 10:37:16 10° SE visible
26 Apr 10.0 02:37:52 10° S 02:44:07 15° SSE 02:45:12 14° SE visible
26 Apr 10.3 04:48:01 10° SW 04:49:51 14° SW 04:49:51 14° SW visible
26 Apr 8.8 09:23:58 12° SE 09:23:58 12° SE 09:24:18 10° ESE visible
27 Apr 9.6 03:32:34 10° SSW 03:41:00 25° S 03:41:00 25° S visible
27 Apr 7.8 10:18:54 20° S 10:18:54 20° S 10:20:53 10° SSE visible
